Time,TemperatureF,DewpointF,PressureIn,WindDirection,WindDirectionDegrees,WindSpeedMPH,WindSpeedGustMPH,Humidity,HourlyPrecipIn,Conditions,Clouds,dailyrainin,SoftwareType,DateUTC
2013-02-24 00:00:00,22.4,16.3,30.43,WNW,282,0.0,0.0,77,0.00,CLR,,0.02,WeatherDisplay:10.37,2013-02-24 08:00:00,
2013-02-24 00:05:00,22.4,16.3,30.43,WNW,282,0.0,0.0,77,0.00,RA,,0.00,WeatherDisplay:10.37,2013-02-24 08:05:00,
2013-02-24 00:10:00,22.4,16.3,30.43,WNW,282,0.0,0.0,77,0.00,RA,,0.00,WeatherDisplay:10.37,2013-02-24 08:10:00,
2013-02-24 00:15:00,22.4,16.3,30.43,WNW,282,0.0,0.0,77,0.00,CLR,,0.00,WeatherDisplay:10.37,2013-02-24 08:15:00,
2013-02-24 00:20:00,22.2,15.8,30.43,WNW,282,0.0,0.0,76,0.00,CLR,,0.00,WeatherDisplay:10.37,2013-02-24 08:20:00,
2013-02-24 00:25:00,22.1,16.0,30.43,WNW,282,0.0,0.0,77,0.00,CLR,,0.00,WeatherDisplay:10.37,2013-02-24 08:25:00,
2013-02-24 00:30:00,22.2,16.1,30.43,WNW,282,0.0,0.0,77,0.00,CLR,,0.00,WeatherDisplay:10.37,2013-02-24 08:30:00,
2013-02-24 00:35:00,22.4,16.3,30.44,SSW,196,0.0,0.0,77,0.00,CLR,,0.00,WeatherDisplay:10.37,2013-02-24 08:35:00,
2013-02-24 00:40:00,22.1,15.7,30.45,SSW,198,0.0,0.0,76,0.00,CLR,,0.00,WeatherDisplay:10.37,2013-02-24 08:40:00,
2013-02-24 00:45:00,21.8,15.7,30.44,SSW,198,0.0,0.0,77,0.00,CLR,,0.00,WeatherDisplay:10.37,2013-02-24 08:45:00,
2013-02-24 00:50:00,22.1,15.7,30.45,SSW,198,0.0,0.0,76,0.00,CLR,,0.00,WeatherDisplay:10.37,2013-02-24 08:50:00,
2013-02-24 00:55:00,22.4,16.0,30.45,SSW,198,0.0,0.0,76,0.00,CLR,,0.00,WeatherDisplay:10.37,2013-02-24 08:55:00,
2013-02-24 01:00:00,22.5,16.1,30.44,SSW,198,0.0,0.0,76,0.00,CLR,,0.00,WeatherDisplay:10.37,2013-02-24 09:00:00,
2013-02-24 01:05:00,22.4,15.7,30.45,SSW,198,0.0,0.0,75,0.00,CLR,,0.00,WeatherDisplay:10.37,2013-02-24 09:05:00,
2013-02-24 01:10:00,22.4,15.7,30.45,South,185,0.0,0.0,75,0.00,CLR,,0.00,WeatherDisplay:10.37,2013-02-24 09:10:00,
2013-02-24 01:15:00,22.4,15.7,30.45,South,185,0.0,0.0,75,0.00,CLR,,0.00,WeatherDisplay:10.37,2013-02-24 09:15:00,
2013-02-24 01:20:00,22.4,15.4,30.45,South,185,0.0,0.0,74,0.00,CLR,,0.00,WeatherDisplay:10.37,2013-02-24 09:20:00,
2013-02-24 01:25:00,22.2,15.5,30.45,South,185,0.0,0.0,75,0.00,CLR,,0.00,WeatherDisplay:10.37,2013-02-24 09:25:00,
2013-02-24 01:30:00,22.2,15.5,30.45,South,185,0.0,0.0,75,0.00,CLR,,0.00,WeatherDisplay:10.37,2013-02-24 09:30:00,
2013-02-24 01:35:00,22.1,15.4,30.45,South,185,0.0,0.0,75,0.00,CLR,,0.00,WeatherDisplay:10.37,2013-02-24 09:35:00,
2013-02-24 01:40:00,21.9,15.2,30.45,South,185,0.0,0.0,75,0.00,CLR,,0.00,WeatherDisplay:10.37,2013-02-24 09:40:00,
2013-02-24 01:45:00,22.1,15.4,30.45,South,185,0.0,0.0,75,0.00,CLR,,0.00,WeatherDisplay:10.37,2013-02-24 09:45:00,
2013-02-24 01:50:00,22.1,15.1,30.45,South,185,0.0,0.0,74,0.00,CLR,,0.00,WeatherDisplay:10.37,2013-02-24 09:50:00,
2013-02-24 01:55:00,22.1,15.4,30.45,South,185,0.0,0.0,75,0.00,CLR,,0.00,WeatherDisplay:10.37,2013-02-24 09:55:00,
2013-02-24 02:00:00,22.2,15.2,30.45,South,185,0.0,0.0,74,0.00,CLR,,0.00,WeatherDisplay:10.37,2013-02-24 10:00:00,
2013-02-24 02:05:00,22.2,15.2,30.45,South,185,0.0,0.0,74,0.00,CLR,,0.00,WeatherDisplay:10.37,2013-02-24 10:05:00,
2013-02-24 02:10:00,22.4,15.4,30.45,South,185,0.0,0.0,74,0.00,CLR,,0.00,WeatherDisplay:10.37,2013-02-24 10:10:00,
2013-02-24 02:15:00,22.5,15.1,30.45,South,185,0.0,0.0,73,0.00,CLR,,0.00,WeatherDisplay:10.37,2013-02-24 10:15:00,
2013-02-24 02:20:00,22.4,15.3,30.45,South,185,0.0,0.0,74,0.00,CLR,,0.00,WeatherDisplay:10.37,2013-02-24 10:20:00,
2013-02-24 02:25:00,21.9,14.9,30.45,South,185,0.0,0.0,74,0.00,CLR,,0.00,WeatherDisplay:10.37,2013-02-24 10:25:00,
2013-02-24 02:30:00,21.4,14.7,30.45,South,185,0.0,0.0,75,0.00,CLR,,0.00,WeatherDisplay:10.37,2013-02-24 10:30:00,
2013-02-24 02:35:00,21.3,14.6,30.45,South,185,0.0,0.0,75,0.00,CLR,,0.00,WeatherDisplay:10.37,2013-02-24 10:35:00,
2013-02-24 02:40:00,21.0,14.6,30.46,South,185,0.0,0.0,76,0.00,CLR,,0.00,WeatherDisplay:10.37,2013-02-24 10:40:00,
2013-02-24 02:45:00,21.0,14.6,30.45,South,185,0.0,0.0,76,0.00,CLR,,0.00,WeatherDisplay:10.37,2013-02-24 10:45:00,
2013-02-24 02:50:00,21.0,14.9,30.45,South,185,0.0,0.0,77,0.00,CLR,,0.00,WeatherDisplay:10.37,2013-02-24 10:50:00,
2013-02-24 02:55:00,21.0,14.6,30.45,South,185,0.0,0.0,76,0.00,CLR,,0.00,WeatherDisplay:10.37,2013-02-24 10:55:00,
2013-02-24 03:00:00,20.5,14.1,30.45,South,185,0.0,0.0,76,0.00,CLR,,0.00,WeatherDisplay:10.37,2013-02-24 11:00:00,
2013-02-24 03:05:00,20.5,14.4,30.45,South,185,0.0,0.0,77,0.00,CLR,,0.00,WeatherDisplay:10.37,2013-02-24 11:05:00,
2013-02-24 03:10:00,20.3,14.2,30.46,South,185,0.0,0.0,77,0.00,CLR,,0.00,WeatherDisplay:10.37,2013-02-24 11:10:00,
2013-02-24 03:15:00,20.3,14.2,30.45,South,185,0.0,0.0,77,0.00,CLR,,0.00,WeatherDisplay:10.37,2013-02-24 11:15:00,
2013-02-24 03:20:00,19.9,14.1,30.45,South,185,0.0,0.0,78,0.00,CLR,,0.00,WeatherDisplay:10.37,2013-02-24 11:20:00,
2013-02-24 03:25:00,20.0,13.9,30.45,South,185,0.0,0.0,77,0.00,CLR,,0.00,WeatherDisplay:10.37,2013-02-24 11:25:00,
2013-02-24 03:30:00,20.0,13.9,30.46,South,185,0.0,0.0,77,0.00,CLR,,0.00,WeatherDisplay:10.37,2013-02-24 11:30:00,
2013-02-24 03:35:00,20.0,13.9,30.46,South,185,0.0,0.0,77,0.00,CLR,,0.00,WeatherDisplay:10.37,2013-02-24 11:35:00,
2013-02-24 03:40:00,19.9,13.9,30.46,South,185,0.0,0.0,77,0.00,CLR,,0.00,WeatherDisplay:10.37,2013-02-24 11:40:00,
2013-02-24 03:45:00,19.9,13.9,30.46,South,185,0.0,0.0,77,0.00,CLR,,0.00,WeatherDisplay:10.37,2013-02-24 11:45:00,
2013-02-24 03:50:00,19.7,13.7,30.46,South,185,0.0,0.0,77,0.00,CLR,,0.00,WeatherDisplay:10.37,2013-02-24 11:50:00,
2013-02-24 03:55:00,19.5,13.5,30.46,South,185,0.0,0.0,77,0.00,CLR,,0.00,WeatherDisplay:10.37,2013-02-24 11:55:00,
2013-02-24 04:00:00,19.4,13.4,30.47,South,185,0.0,0.0,77,0.00,CLR,,0.00,WeatherDisplay:10.37,2013-02-24 12:00:00,
2013-02-24 04:05:00,19.4,13.7,30.48,South,185,0.0,0.0,78,0.00,CLR,,0.00,WeatherDisplay:10.37,2013-02-24 12:05:00,
2013-02-24 04:10:00,19.2,13.5,30.47,South,185,0.0,0.0,78,0.00,CLR,,0.00,WeatherDisplay:10.37,2013-02-24 12:10:00,
2013-02-24 04:15:00,19.1,13.4,30.48,South,185,0.0,0.0,78,0.00,CLR,,0.00,WeatherDisplay:10.37,2013-02-24 12:15:00,
2013-02-24 04:20:00,19.1,13.1,30.48,South,185,0.0,0.0,77,0.00,CLR,,0.00,WeatherDisplay:10.37,2013-02-24 12:20:00,
2013-02-24 04:25:00,19.1,13.1,30.48,South,185,0.0,0.0,77,0.00,CLR,,0.00,WeatherDisplay:10.37,2013-02-24 12:25:00,
2013-02-24 04:30:00,19.1,13.1,30.48,South,185,0.0,0.0,77,0.00,CLR,,0.00,WeatherDisplay:10.37,2013-02-24 12:30:00,
2013-02-24 04:35:00,18.8,12.8,30.48,South,185,0.0,0.0,77,0.00,CLR,,0.00,WeatherDisplay:10.37,2013-02-24 12:35:00,
2013-02-24 04:40:00,18.4,12.4,30.48,South,185,0.0,0.0,77,0.00,CLR,,0.00,WeatherDisplay:10.37,2013-02-24 12:40:00,
2013-02-24 04:45:00,18.0,12.3,30.48,South,185,0.0,0.0,78,0.00,CLR,,0.00,WeatherDisplay:10.37,2013-02-24 12:45:00,
2013-02-24 04:50:00,18.1,12.4,30.48,South,185,0.0,0.0,78,0.00,CLR,,0.00,WeatherDisplay:10.37,2013-02-24 12:50:00,
2013-02-24 04:55:00,18.6,12.9,30.48,South,185,0.0,0.0,78,0.00,CLR,,0.00,WeatherDisplay:10.37,2013-02-24 12:55:00,
2013-02-24 05:00:00,19.2,13.2,30.47,South,172,0.0,0.0,77,0.00,CLR,,0.00,WeatherDisplay:10.37,2013-02-24 13:00:00,
2013-02-24 05:05:00,20.2,13.8,30.47,South,172,0.0,0.0,76,0.00,CLR,,0.00,WeatherDisplay:10.37,2013-02-24 13:05:00,
2013-02-24 05:10:00,21.0,14.3,30.47,South,172,0.0,0.0,75,0.00,CLR,,0.00,WeatherDisplay:10.37,2013-02-24 13:10:00,
2013-02-24 05:15:00,21.3,14.3,30.47,South,172,0.0,0.0,74,0.00,CLR,,0.00,WeatherDisplay:10.37,2013-02-24 13:15:00,
2013-02-24 05:20:00,21.4,14.4,30.47,South,172,0.0,0.0,74,0.00,CLR,,0.00,WeatherDisplay:10.37,2013-02-24 13:20:00,
2013-02-24 05:25:00,21.3,14.3,30.47,South,172,0.0,0.0,74,0.00,CLR,,0.00,WeatherDisplay:10.37,2013-02-24 13:25:00,
2013-02-24 05:30:00,21.3,14.3,30.47,South,172,0.0,0.0,74,0.00,CLR,,0.00,WeatherDisplay:10.37,2013-02-24 13:30:00,
2013-02-24 05:35:00,21.1,14.1,30.47,South,172,0.0,0.0,74,0.00,CLR,,0.00,WeatherDisplay:10.37,2013-02-24 13:35:00,
2013-02-24 05:40:00,21.3,14.3,30.48,South,172,0.0,0.0,74,0.00,CLR,,0.00,WeatherDisplay:10.37,2013-02-24 13:40:00,
2013-02-24 05:45:00,21.3,14.3,30.48,South,172,0.0,0.0,74,0.00,CLR,,0.00,WeatherDisplay:10.37,2013-02-24 13:45:00,
2013-02-24 05:50:00,21.0,14.0,30.48,South,172,0.0,0.0,74,0.00,CLR,,0.00,WeatherDisplay:10.37,2013-02-24 13:50:00,
2013-02-24 05:55:00,21.1,14.1,30.48,South,172,0.0,0.0,74,0.00,CLR,,0.00,WeatherDisplay:10.37,2013-02-24 13:55:00,
2013-02-24 06:00:00,21.3,14.3,30.48,South,172,0.0,0.0,74,0.00,CLR,,0.00,WeatherDisplay:10.37,2013-02-24 14:00:00,
2013-02-24 06:05:00,21.3,14.3,30.49,South,172,0.0,0.0,74,0.00,CLR,,0.00,WeatherDisplay:10.37,2013-02-24 14:05:00,
2013-02-24 06:10:00,21.3,14.3,30.49,South,172,0.0,0.0,74,0.00,CLR,,0.00,WeatherDisplay:10.37,2013-02-24 14:10:00,
2013-02-24 06:15:00,21.4,14.4,30.49,South,172,0.0,0.0,74,0.00,CLR,,0.00,WeatherDisplay:10.37,2013-02-24 14:15:00,
2013-02-24 06:20:00,21.0,14.0,30.48,South,172,0.0,0.0,74,0.00,CLR,,0.00,WeatherDisplay:10.37,2013-02-24 14:20:00,
2013-02-24 06:25:00,20.5,13.5,30.48,South,172,0.0,0.0,74,0.00,CLR,,0.00,WeatherDisplay:10.37,2013-02-24 14:25:00,
2013-02-24 06:30:00,20.2,13.8,30.48,South,172,0.0,0.0,76,0.00,CLR,,0.00,WeatherDisplay:10.37,2013-02-24 14:30:00,
2013-02-24 06:35:00,20.3,13.9,30.49,South,172,0.0,0.0,76,0.00,CLR,,0.00,WeatherDisplay:10.37,2013-02-24 14:35:00,
2013-02-24 06:40:00,20.6,14.2,30.49,South,172,0.0,0.0,76,0.00,CLR,,0.00,WeatherDisplay:10.37,2013-02-24 14:40:00,
2013-02-24 06:45:00,20.5,13.8,30.49,South,172,0.0,0.0,75,0.00,CLR,,0.00,WeatherDisplay:10.37,2013-02-24 14:45:00,
2013-02-24 06:50:00,20.5,14.1,30.49,South,172,0.0,0.0,76,0.00,CLR,,0.00,WeatherDisplay:10.37,2013-02-24 14:50:00,
2013-02-24 06:55:00,21.3,14.9,30.49,SSE,167,0.0,0.0,76,0.00,CLR,,0.00,WeatherDisplay:10.37,2013-02-24 14:55:00,
2013-02-24 07:00:00,22.1,15.4,30.48,South,171,0.0,0.0,75,0.00,CLR,,0.00,WeatherDisplay:10.37,2013-02-24 15:00:00,
2013-02-24 07:05:00,22.7,15.7,30.48,South,172,0.0,0.0,74,0.00,CLR,,0.00,WeatherDisplay:10.37,2013-02-24 15:05:00,
2013-02-24 07:10:00,22.1,15.1,30.49,South,172,0.0,0.0,74,0.00,CLR,,0.00,WeatherDisplay:10.37,2013-02-24 15:10:00,
2013-02-24 07:15:00,22.1,15.1,30.49,South,172,0.0,0.0,74,0.00,CLR,,0.00,WeatherDisplay:10.37,2013-02-24 15:15:00,
2013-02-24 07:20:00,22.5,15.5,30.48,South,172,0.0,0.0,74,0.00,CLR,,0.00,WeatherDisplay:10.37,2013-02-24 15:20:00,
2013-02-24 07:25:00,22.9,15.8,30.48,South,171,0.0,0.0,74,0.00,CLR,,0.00,WeatherDisplay:10.37,2013-02-24 15:25:00,
2013-02-24 07:30:00,23.3,15.9,30.48,South,171,0.0,0.0,73,0.00,CLR,,0.00,WeatherDisplay:10.37,2013-02-24 15:30:00,
2013-02-24 07:35:00,23.8,16.1,30.48,South,171,0.0,0.0,72,0.00,CLR,,0.00,WeatherDisplay:10.37,2013-02-24 15:35:00,
2013-02-24 07:40:00,23.9,15.9,30.48,South,172,0.0,0.0,71,0.00,CLR,,0.00,WeatherDisplay:10.37,2013-02-24 15:40:00,
2013-02-24 07:45:00,24.4,16.3,30.48,South,171,0.0,0.0,71,0.00,CLR,,0.00,WeatherDisplay:10.37,2013-02-24 15:45:00,
2013-02-24 07:50:00,24.8,16.1,30.47,South,171,0.0,0.0,69,0.00,CLR,,0.00,WeatherDisplay:10.37,2013-02-24 15:50:00,
2013-02-24 07:55:00,25.6,16.5,30.47,SSE,160,0.0,0.0,68,0.00,CLR,,0.00,WeatherDisplay:10.37,2013-02-24 15:55:00,
2013-02-24 08:00:00,26.4,16.9,30.47,SSE,160,0.0,0.0,67,0.00,CLR,,0.00,WeatherDisplay:10.37,2013-02-24 16:00:00,
2013-02-24 08:05:00,27.3,17.1,30.47,SSE,157,0.0,0.0,65,0.00,CLR,,0.00,WeatherDisplay:10.37,2013-02-24 16:05:00,
2013-02-24 08:10:00,28.1,17.1,30.46,SSE,147,0.0,0.0,63,0.00,CLR,,0.00,WeatherDisplay:10.37,2013-02-24 16:10:00,
2013-02-24 08:15:00,29.1,17.7,30.47,SSE,147,0.0,0.0,62,0.00,CLR,,0.00,WeatherDisplay:10.37,2013-02-24 16:15:00,
2013-02-24 08:20:00,29.8,18.0,30.46,SE,138,0.0,0.0,61,0.00,CLR,,0.00,WeatherDisplay:10.37,2013-02-24 16:20:00,
2013-02-24 08:25:00,30.7,18.1,30.46,SE,138,0.0,0.0,59,0.00,CLR,,0.00,WeatherDisplay:10.37,2013-02-24 16:25:00,
2013-02-24 08:30:00,30.9,18.2,30.45,SE,144,0.0,0.0,59,0.00,CLR,,0.00,WeatherDisplay:10.37,2013-02-24 16:30:00,
2013-02-24 08:35:00,30.9,17.8,30.45,SE,144,0.0,0.0,58,0.00,CLR,,0.00,WeatherDisplay:10.37,2013-02-24 16:35:00,
2013-02-24 08:40:00,30.6,17.6,30.45,SE,145,0.0,0.0,58,0.00,CLR,,0.00,WeatherDisplay:10.37,2013-02-24 16:40:00,
2013-02-24 08:45:00,30.3,17.7,30.45,SE,144,0.0,0.0,59,0.00,CLR,,0.00,WeatherDisplay:10.37,2013-02-24 16:45:00,
2013-02-24 08:50:00,30.3,18.1,30.45,SSE,148,0.0,0.0,60,0.00,CLR,,0.00,WeatherDisplay:10.37,2013-02-24 16:50:00,
2013-02-24 08:55:00,30.4,18.5,30.45,SSE,148,0.0,0.0,61,0.00,CLR,,0.00,WeatherDisplay:10.37,2013-02-24 16:55:00,
2013-02-24 09:00:00,30.6,18.0,30.45,SSE,150,0.0,0.0,59,0.00,CLR,,0.00,WeatherDisplay:10.37,2013-02-24 17:00:00,
2013-02-24 09:05:00,30.9,18.2,30.45,SSE,148,0.0,0.0,59,0.00,CLR,,0.00,WeatherDisplay:10.37,2013-02-24 17:05:00,
2013-02-24 09:10:00,31.2,18.5,30.45,SSE,148,0.0,0.0,59,0.00,CLR,,0.00,WeatherDisplay:10.37,2013-02-24 17:10:00,
2013-02-24 09:15:00,31.2,17.7,30.45,SSE,148,0.0,0.0,57,0.00,CLR,,0.00,WeatherDisplay:10.37,2013-02-24 17:15:00,
2013-02-24 09:20:00,31.3,17.4,30.45,SSE,148,0.0,0.0,56,0.00,CLR,,0.00,WeatherDisplay:10.37,2013-02-24 17:20:00,
2013-02-24 09:25:00,31.5,18.0,30.44,SSE,148,0.0,0.0,57,0.00,CLR,,0.00,WeatherDisplay:10.37,2013-02-24 17:25:00,
2013-02-24 09:30:00,31.5,18.0,30.45,SSE,148,0.0,0.0,57,0.00,CLR,,0.00,WeatherDisplay:10.37,2013-02-24 17:30:00,
2013-02-24 09:35:00,31.5,17.6,30.44,SSE,148,0.0,0.0,56,0.00,CLR,,0.00,WeatherDisplay:10.37,2013-02-24 17:35:00,
2013-02-24 09:40:00,31.8,17.0,30.43,SE,145,0.0,0.0,54,0.00,CLR,,0.00,WeatherDisplay:10.37,2013-02-24 17:40:00,
2013-02-24 09:45:00,31.9,17.1,30.43,SE,127,0.0,0.0,54,0.00,CLR,,0.00,WeatherDisplay:10.37,2013-02-24 17:45:00,
2013-02-24 09:50:00,32.1,17.3,30.44,ESE,121,0.0,0.0,54,0.00,CLR,,0.00,WeatherDisplay:10.37,2013-02-24 17:50:00,
2013-02-24 09:55:00,32.2,17.0,30.44,ESE,121,0.0,0.0,53,0.00,CLR,,0.00,WeatherDisplay:10.37,2013-02-24 17:55:00,
2013-02-24 10:00:00,32.4,17.2,30.43,ESE,121,0.0,0.0,53,0.00,CLR,,0.00,WeatherDisplay:10.37,2013-02-24 18:00:00,
2013-02-24 10:05:00,32.5,17.2,30.44,ESE,121,0.0,0.0,53,0.00,CLR,,0.00,WeatherDisplay:10.37,2013-02-24 18:05:00,
2013-02-24 10:10:00,32.5,16.8,30.44,ESE,121,0.0,0.0,52,0.00,CLR,,0.00,WeatherDisplay:10.37,2013-02-24 18:10:00,
2013-02-24 10:15:00,32.8,17.1,30.44,ESE,121,0.0,0.0,52,0.00,CLR,,0.00,WeatherDisplay:10.37,2013-02-24 18:15:00,
2013-02-24 10:20:00,33.1,16.9,30.44,ESE,121,0.0,0.0,51,0.00,CLR,,0.00,WeatherDisplay:10.37,2013-02-24 18:20:00,
2013-02-24 10:25:00,33.2,17.0,30.44,ESE,121,0.0,0.0,51,0.00,CLR,,0.00,WeatherDisplay:10.37,2013-02-24 18:25:00,
2013-02-24 10:30:00,33.7,17.5,30.42,ESE,121,0.0,0.0,51,0.00,CLR,,0.00,WeatherDisplay:10.37,2013-02-24 18:30:00,
2013-02-24 10:35:00,34.3,17.6,30.42,ESE,121,0.0,0.0,50,0.00,CLR,,0.00,WeatherDisplay:10.37,2013-02-24 18:35:00,
2013-02-24 10:40:00,34.7,17.9,30.42,ESE,121,0.0,0.0,50,0.00,CLR,,0.00,WeatherDisplay:10.37,2013-02-24 18:40:00,
2013-02-24 10:45:00,35.2,17.9,30.42,ESE,121,0.0,0.0,49,0.00,CLR,,0.00,WeatherDisplay:10.37,2013-02-24 18:45:00,
2013-02-24 10:50:00,35.5,18.2,30.41,ESE,121,0.0,0.0,49,0.00,CLR,,0.00,WeatherDisplay:10.37,2013-02-24 18:50:00,
2013-02-24 10:55:00,35.5,17.2,30.41,ENE,62,0.0,0.0,47,0.00,CLR,,0.00,WeatherDisplay:10.37,2013-02-24 18:55:00,
2013-02-24 11:00:00,35.0,16.3,30.42,ENE,61,0.0,0.0,46,0.00,CLR,,0.00,WeatherDisplay:10.37,2013-02-24 19:00:00,
2013-02-24 11:05:00,35.3,16.6,30.42,ENE,61,0.0,0.0,46,0.00,CLR,,0.00,WeatherDisplay:10.37,2013-02-24 19:05:00,
2013-02-24 11:10:00,35.8,17.0,30.41,ENE,62,0.0,0.0,46,0.00,CLR,,0.00,WeatherDisplay:10.37,2013-02-24 19:10:00,
2013-02-24 11:15:00,35.9,16.6,30.42,ENE,69,0.0,0.0,45,0.00,CLR,,0.00,WeatherDisplay:10.37,2013-02-24 19:15:00,
2013-02-24 11:20:00,36.3,17.5,30.42,ENE,69,0.0,0.0,46,0.00,CLR,,0.00,WeatherDisplay:10.37,2013-02-24 19:20:00,
2013-02-24 11:25:00,36.3,16.4,30.41,ENE,69,0.0,0.0,44,0.00,CLR,,0.00,WeatherDisplay:10.37,2013-02-24 19:25:00,
2013-02-24 11:30:00,36.6,16.7,30.41,ENE,69,0.0,0.0,44,0.00,CLR,,0.00,WeatherDisplay:10.37,2013-02-24 19:30:00,
2013-02-24 11:35:00,36.8,16.9,30.41,ENE,69,0.0,0.0,44,0.00,CLR,,0.00,WeatherDisplay:10.37,2013-02-24 19:35:00,
2013-02-24 11:40:00,36.8,17.9,30.41,ENE,69,0.0,0.0,46,0.00,CLR,,0.00,WeatherDisplay:10.37,2013-02-24 19:40:00,
2013-02-24 11:45:00,36.5,16.6,30.41,ENE,69,0.0,0.0,44,0.00,CLR,,0.00,WeatherDisplay:10.37,2013-02-24 19:45:00,
2013-02-24 11:50:00,36.9,17.0,30.41,ENE,69,0.0,0.0,44,0.00,CLR,,0.00,WeatherDisplay:10.37,2013-02-24 19:50:00,
2013-02-24 11:55:00,37.2,16.7,30.41,ENE,69,0.0,0.0,43,0.00,CLR,,0.00,WeatherDisplay:10.37,2013-02-24 19:55:00,
2013-02-24 12:00:00,37.5,17.5,30.40,ENE,69,0.0,0.0,44,0.00,CLR,,0.00,WeatherDisplay:10.37,2013-02-24 20:00:00,
2013-02-24 12:05:00,37.9,17.9,30.40,ENE,69,0.0,0.0,44,0.00,CLR,,0.00,WeatherDisplay:10.37,2013-02-24 20:05:00,
2013-02-24 12:10:00,38.0,18.5,30.40,ENE,66,0.0,0.0,45,0.00,CLR,,0.00,WeatherDisplay:10.37,2013-02-24 20:10:00,
2013-02-24 12:15:00,38.0,18.5,30.39,ENE,66,0.0,0.0,45,0.00,CLR,,0.00,WeatherDisplay:10.37,2013-02-24 20:15:00,
2013-02-24 12:20:00,38.8,19.2,30.38,ENE,66,0.0,0.0,45,0.00,CLR,,0.00,WeatherDisplay:10.37,2013-02-24 20:20:00,
2013-02-24 12:25:00,39.1,18.5,30.38,ENE,66,0.0,0.0,43,0.00,CLR,,0.00,WeatherDisplay:10.37,2013-02-24 20:25:00,
2013-02-24 12:30:00,39.6,18.9,30.38,ENE,66,0.0,0.0,43,0.00,CLR,,0.00,WeatherDisplay:10.37,2013-02-24 20:30:00,
2013-02-24 12:35:00,39.5,18.8,30.38,ENE,66,0.0,0.0,43,0.00,CLR,,0.00,WeatherDisplay:10.37,2013-02-24 20:35:00,
2013-02-24 12:40:00,39.5,19.4,30.37,ENE,66,0.0,0.0,44,0.00,CLR,,0.00,WeatherDisplay:10.37,2013-02-24 20:40:00,
2013-02-24 12:45:00,40.3,19.5,30.37,ENE,66,0.0,0.0,43,0.00,CLR,,0.00,WeatherDisplay:10.37,2013-02-24 20:45:00,
2013-02-24 12:50:00,40.1,19.4,30.36,ENE,68,0.0,0.0,43,0.00,CLR,,0.00,WeatherDisplay:10.37,2013-02-24 20:50:00,
2013-02-24 12:55:00,40.1,19.9,30.36,ENE,72,0.0,0.0,44,0.00,CLR,,0.00,WeatherDisplay:10.37,2013-02-24 20:55:00,
2013-02-24 13:00:00,40.1,18.8,30.36,ENE,72,0.0,0.0,42,0.00,CLR,,0.00,WeatherDisplay:10.37,2013-02-24 21:00:00,
2013-02-24 13:05:00,40.3,19.0,30.36,ENE,72,0.0,0.0,42,0.00,CLR,,0.00,WeatherDisplay:10.37,2013-02-24 21:05:00,
2013-02-24 13:10:00,40.2,20.0,30.35,ENE,72,0.0,0.0,44,0.00,CLR,,0.00,WeatherDisplay:10.37,2013-02-24 21:10:00,
2013-02-24 13:15:00,40.6,19.8,30.35,ENE,72,0.0,0.0,43,0.00,CLR,,0.00,WeatherDisplay:10.37,2013-02-24 21:15:00,
2013-02-24 13:20:00,41.5,20.1,30.35,ENE,73,0.0,0.0,42,0.00,CLR,,0.00,WeatherDisplay:10.37,2013-02-24 21:20:00,
2013-02-24 13:25:00,41.5,19.5,30.34,ENE,72,0.0,0.0,41,0.00,CLR,,0.00,WeatherDisplay:10.37,2013-02-24 21:25:00,
2013-02-24 13:30:00,41.5,18.9,30.33,ENE,72,0.0,0.0,40,0.00,CLR,,0.00,WeatherDisplay:10.37,2013-02-24 21:30:00,
2013-02-24 13:35:00,41.9,18.7,30.33,ENE,72,0.0,0.0,39,0.00,CLR,,0.00,WeatherDisplay:10.37,2013-02-24 21:35:00,
2013-02-24 13:40:00,42.5,19.3,30.33,ENE,73,0.0,0.0,39,0.00,CLR,,0.00,WeatherDisplay:10.37,2013-02-24 21:40:00,
2013-02-24 13:45:00,42.5,19.3,30.32,ENE,72,0.0,0.0,39,0.00,CLR,,0.00,WeatherDisplay:10.37,2013-02-24 21:45:00,
2013-02-24 13:50:00,42.6,19.3,30.32,SW,219,0.0,0.0,39,0.00,CLR,,0.00,WeatherDisplay:10.37,2013-02-24 21:50:00,
2013-02-24 13:55:00,42.9,19.6,30.32,SW,219,0.0,0.0,39,0.00,CLR,,0.00,WeatherDisplay:10.37,2013-02-24 21:55:00,
2013-02-24 14:00:00,43.2,20.5,30.32,SW,219,0.0,0.0,40,0.00,CLR,,0.00,WeatherDisplay:10.37,2013-02-24 22:00:00,
2013-02-24 14:05:00,42.9,19.6,30.32,East,80,0.0,0.0,39,0.00,CLR,,0.00,WeatherDisplay:10.37,2013-02-24 22:05:00,
2013-02-24 14:10:00,43.3,20.0,30.31,East,93,0.0,0.0,39,0.00,CLR,,0.00,WeatherDisplay:10.37,2013-02-24 22:10:00,
2013-02-24 14:15:00,43.6,19.6,30.31,East,100,0.0,0.0,38,0.00,CLR,,0.00,WeatherDisplay:10.37,2013-02-24 22:15:00,
2013-02-24 14:20:00,43.8,19.2,30.30,East,85,0.0,0.0,37,0.00,CLR,,0.00,WeatherDisplay:10.37,2013-02-24 22:20:00,
2013-02-24 14:25:00,44.1,20.1,30.30,East,89,0.0,0.0,38,0.00,CLR,,0.00,WeatherDisplay:10.37,2013-02-24 22:25:00,
2013-02-24 14:30:00,44.8,19.4,30.29,East,89,0.0,0.0,36,0.00,CLR,,0.00,WeatherDisplay:10.37,2013-02-24 22:30:00,
2013-02-24 14:35:00,44.8,18.8,30.29,East,99,0.0,0.0,35,0.00,CLR,,0.00,WeatherDisplay:10.37,2013-02-24 22:35:00,
2013-02-24 14:40:00,44.8,19.4,30.29,East,99,0.0,0.0,36,0.00,CLR,,0.00,WeatherDisplay:10.37,2013-02-24 22:40:00,
2013-02-24 14:45:00,45.1,19.7,30.29,East,99,0.0,0.0,36,0.00,CLR,,0.00,WeatherDisplay:10.37,2013-02-24 22:45:00,
2013-02-24 14:50:00,45.1,19.7,30.29,ENE,76,0.0,0.0,36,0.00,CLR,,0.00,WeatherDisplay:10.37,2013-02-24 22:50:00,
2013-02-24 14:55:00,44.9,19.5,30.29,ENE,76,0.0,0.0,36,0.00,CLR,,0.00,WeatherDisplay:10.37,2013-02-24 22:55:00,
2013-02-24 15:00:00,45.1,20.3,30.29,East,83,0.0,0.0,37,0.00,CLR,,0.00,WeatherDisplay:10.37,2013-02-24 23:00:00,
2013-02-24 15:05:00,45.5,20.1,30.29,East,83,0.0,0.0,36,0.00,CLR,,0.00,WeatherDisplay:10.37,2013-02-24 23:05:00,
2013-02-24 15:10:00,45.7,19.6,30.29,East,82,0.0,0.0,35,0.00,CLR,,0.00,WeatherDisplay:10.37,2013-02-24 23:10:00,
2013-02-24 15:15:00,45.5,20.1,30.29,East,82,0.0,0.0,36,0.00,CLR,,0.00,WeatherDisplay:10.37,2013-02-24 23:15:00,
2013-02-24 15:20:00,45.8,19.7,30.28,East,82,0.0,0.0,35,0.00,CLR,,0.00,WeatherDisplay:10.37,2013-02-24 23:20:00,
2013-02-24 15:25:00,45.7,20.9,30.28,East,80,0.0,0.0,37,0.00,CLR,,0.00,WeatherDisplay:10.37,2013-02-24 23:25:00,
2013-02-24 15:30:00,46.0,21.1,30.28,East,80,0.0,0.0,37,0.00,CLR,,0.00,WeatherDisplay:10.37,2013-02-24 23:30:00,
2013-02-24 15:35:00,45.8,20.3,30.27,ENE,76,0.0,0.0,36,0.00,CLR,,0.00,WeatherDisplay:10.37,2013-02-24 23:35:00,
2013-02-24 15:40:00,46.1,20.6,30.27,ENE,78,0.0,0.0,36,0.00,CLR,,0.00,WeatherDisplay:10.37,2013-02-24 23:40:00,
2013-02-24 15:45:00,46.1,20.6,30.27,ENE,78,0.0,0.0,36,0.00,CLR,,0.00,WeatherDisplay:10.37,2013-02-24 23:45:00,
2013-02-24 15:50:00,46.4,21.5,30.26,ENE,78,0.0,0.0,37,0.00,CLR,,0.00,WeatherDisplay:10.37,2013-02-24 23:50:00,
2013-02-24 15:55:00,46.5,20.9,30.25,ENE,78,0.0,0.0,36,0.00,CLR,,0.00,WeatherDisplay:10.37,2013-02-24 23:55:00,
2013-02-24 16:00:00,46.5,20.9,30.25,ENE,78,0.0,0.0,36,0.00,CLR,,0.00,WeatherDisplay:10.37,2013-02-25 00:00:00,
2013-02-24 16:05:00,46.5,20.9,30.24,ENE,78,0.0,0.0,36,0.00,CLR,,0.00,WeatherDisplay:10.37,2013-02-25 00:05:00,
2013-02-24 16:10:00,46.4,21.5,30.25,ENE,78,0.0,0.0,37,0.00,CLR,,0.00,WeatherDisplay:10.37,2013-02-25 00:10:00,
2013-02-24 16:15:00,46.2,21.3,30.25,ENE,78,0.0,0.0,37,0.00,CLR,,0.00,WeatherDisplay:10.37,2013-02-25 00:15:00,
2013-02-24 16:20:00,46.2,21.3,30.25,ENE,78,0.0,0.0,37,0.00,CLR,,0.00,WeatherDisplay:10.37,2013-02-25 00:20:00,
2013-02-24 16:25:00,45.8,21.6,30.24,ENE,78,0.0,0.0,38,0.00,CLR,,0.00,WeatherDisplay:10.37,2013-02-25 00:25:00,
2013-02-24 16:30:00,45.8,21.6,30.24,ENE,78,0.0,0.0,38,0.00,CLR,,0.00,WeatherDisplay:10.37,2013-02-25 00:30:00,
2013-02-24 16:35:00,45.8,23.4,30.24,ENE,78,0.0,0.0,41,0.00,CLR,,0.00,WeatherDisplay:10.37,2013-02-25 00:35:00,
2013-02-24 16:40:00,45.5,24.8,30.23,East,79,0.0,0.0,44,0.00,CLR,,0.00,WeatherDisplay:10.37,2013-02-25 00:40:00,
2013-02-24 16:45:00,45.4,25.3,30.23,East,79,0.0,0.0,45,0.00,CLR,,0.00,WeatherDisplay:10.37,2013-02-25 00:45:00,
2013-02-24 16:50:00,45.2,25.6,30.23,East,79,0.0,0.0,46,0.00,CLR,,0.00,WeatherDisplay:10.37,2013-02-25 00:50:00,
2013-02-24 16:55:00,45.2,25.6,30.23,East,79,0.0,0.0,46,0.00,CLR,,0.00,WeatherDisplay:10.37,2013-02-25 00:55:00,
2013-02-24 17:00:00,45.4,25.8,30.23,East,86,0.0,0.0,46,0.00,CLR,,0.00,WeatherDisplay:10.37,2013-02-25 01:00:00,
2013-02-24 17:05:00,45.7,26.1,30.22,East,89,0.0,0.0,46,0.00,CLR,,0.00,WeatherDisplay:10.37,2013-02-25 01:05:00,
2013-02-24 17:10:00,45.5,25.9,30.21,East,97,0.0,0.0,46,0.00,CLR,,0.00,WeatherDisplay:10.37,2013-02-25 01:10:00,
2013-02-24 17:15:00,45.2,25.6,30.21,SE,126,0.0,0.0,46,0.00,CLR,,0.00,WeatherDisplay:10.37,2013-02-25 01:15:00,
2013-02-24 17:20:00,45.1,26.1,30.21,SE,126,0.0,0.0,47,0.00,CLR,,0.00,WeatherDisplay:10.37,2013-02-25 01:20:00,
2013-02-24 17:25:00,44.8,25.8,30.21,SE,126,0.0,0.0,47,0.00,CLR,,0.00,WeatherDisplay:10.37,2013-02-25 01:25:00,
2013-02-24 17:30:00,44.5,25.5,30.21,SE,134,0.0,0.0,47,0.00,CLR,,0.00,WeatherDisplay:10.37,2013-02-25 01:30:00,
2013-02-24 17:35:00,44.2,25.7,30.21,SE,134,0.0,0.0,48,0.00,CLR,,0.00,WeatherDisplay:10.37,2013-02-25 01:35:00,
2013-02-24 17:40:00,43.9,25.5,30.21,SE,136,0.0,0.0,48,0.00,CLR,,0.00,WeatherDisplay:10.37,2013-02-25 01:40:00,
2013-02-24 17:45:00,43.6,25.7,30.21,SE,136,0.0,0.0,49,0.00,CLR,,0.00,WeatherDisplay:10.37,2013-02-25 01:45:00,
2013-02-24 17:50:00,42.9,25.5,30.21,SE,136,0.0,0.0,50,0.00,CLR,,0.00,WeatherDisplay:10.37,2013-02-25 01:50:00,
2013-02-24 17:55:00,42.3,25.4,30.22,SE,136,0.0,0.0,51,0.00,CLR,,0.00,WeatherDisplay:10.37,2013-02-25 01:55:00,
2013-02-24 18:00:00,41.9,25.5,30.22,SE,136,0.0,0.0,52,0.00,CLR,,0.00,WeatherDisplay:10.37,2013-02-25 02:00:00,
2013-02-24 18:05:00,41.8,25.4,30.21,SE,136,0.0,0.0,52,0.00,CLR,,0.00,WeatherDisplay:10.37,2013-02-25 02:05:00,
2013-02-24 18:10:00,41.8,25.4,30.21,SE,136,0.0,0.0,52,0.00,CLR,,0.00,WeatherDisplay:10.37,2013-02-25 02:10:00,
2013-02-24 18:15:00,41.5,25.6,30.21,SE,136,0.0,0.0,53,0.00,CLR,,0.00,WeatherDisplay:10.37,2013-02-25 02:15:00,
2013-02-24 18:20:00,41.2,25.3,30.22,SE,136,0.0,0.0,53,0.00,CLR,,0.00,WeatherDisplay:10.37,2013-02-25 02:20:00,
2013-02-24 18:25:00,40.8,25.0,30.22,SE,136,0.0,0.0,53,0.00,CLR,,0.00,WeatherDisplay:10.37,2013-02-25 02:25:00,
2013-02-24 18:30:00,40.5,25.1,30.22,SE,136,0.0,0.0,54,0.00,CLR,,0.00,WeatherDisplay:10.37,2013-02-25 02:30:00,
2013-02-24 18:35:00,40.3,25.0,30.22,SE,136,0.0,0.0,54,0.00,CLR,,0.00,WeatherDisplay:10.37,2013-02-25 02:35:00,
2013-02-24 18:40:00,40.3,25.4,30.22,SE,136,0.0,0.0,55,0.00,CLR,,0.00,WeatherDisplay:10.37,2013-02-25 02:40:00,
2013-02-24 18:45:00,40.1,25.6,30.22,SE,136,0.0,0.0,56,0.00,CLR,,0.00,WeatherDisplay:10.37,2013-02-25 02:45:00,
2013-02-24 18:50:00,41.1,26.6,30.22,SSE,150,0.0,0.0,56,0.00,CLR,,0.00,WeatherDisplay:10.37,2013-02-25 02:50:00,
2013-02-24 18:55:00,41.6,27.1,30.21,SE,140,0.0,0.0,56,0.00,CLR,,0.00,WeatherDisplay:10.37,2013-02-25 02:55:00,
2013-02-24 19:00:00,41.8,26.8,30.21,SE,131,0.0,0.0,55,0.00,CLR,,0.00,WeatherDisplay:10.37,2013-02-25 03:00:00,
2013-02-24 19:05:00,41.5,27.0,30.19,SE,124,0.0,0.0,56,0.00,CLR,,0.00,WeatherDisplay:10.37,2013-02-25 03:05:00,
2013-02-24 19:10:00,41.1,26.6,30.20,SE,124,0.0,0.0,56,0.00,CLR,,0.00,WeatherDisplay:10.37,2013-02-25 03:10:00,
2013-02-24 19:15:00,40.6,26.5,30.20,SE,124,0.0,0.0,57,0.00,CLR,,0.00,WeatherDisplay:10.37,2013-02-25 03:15:00,
2013-02-24 19:20:00,40.1,26.5,30.20,SE,124,0.0,0.0,58,0.00,CLR,,0.00,WeatherDisplay:10.37,2013-02-25 03:20:00,
2013-02-24 19:25:00,39.6,26.0,30.19,SE,124,0.0,0.0,58,0.00,CLR,,0.00,WeatherDisplay:10.37,2013-02-25 03:25:00,
2013-02-24 19:30:00,39.2,26.1,30.20,SE,124,0.0,0.0,59,0.00,CLR,,0.00,WeatherDisplay:10.37,2013-02-25 03:30:00,
2013-02-24 19:35:00,38.9,26.2,30.19,SE,124,0.0,0.0,60,0.00,CLR,,0.00,WeatherDisplay:10.37,2013-02-25 03:35:00,
2013-02-24 19:40:00,38.8,26.5,30.19,SE,124,0.0,0.0,61,0.00,CLR,,0.00,WeatherDisplay:10.37,2013-02-25 03:40:00,
2013-02-24 19:45:00,38.5,26.6,30.19,SE,124,0.0,0.0,62,0.00,CLR,,0.00,WeatherDisplay:10.37,2013-02-25 03:45:00,
2013-02-24 19:50:00,38.5,27.0,30.19,SE,124,0.0,0.0,63,0.00,CLR,,0.00,WeatherDisplay:10.37,2013-02-25 03:50:00,
2013-02-24 19:55:00,38.6,27.1,30.19,SE,124,0.0,0.0,63,0.00,CLR,,0.00,WeatherDisplay:10.37,2013-02-25 03:55:00,
2013-02-24 20:00:00,38.8,27.3,30.19,SE,124,0.0,0.0,63,0.00,CLR,,0.00,WeatherDisplay:10.37,2013-02-25 04:00:00,
2013-02-24 20:05:00,38.8,27.7,30.16,SE,124,0.0,0.0,64,0.00,CLR,,0.00,WeatherDisplay:10.37,2013-02-25 04:05:00,
2013-02-24 20:10:00,39.1,27.6,30.17,SE,140,0.0,0.0,63,0.00,CLR,,0.00,WeatherDisplay:10.37,2013-02-25 04:10:00,
2013-02-24 20:15:00,39.3,27.7,30.16,SE,133,0.0,0.0,63,0.00,CLR,,0.00,WeatherDisplay:10.37,2013-02-25 04:15:00,
2013-02-24 20:20:00,39.5,27.5,30.16,SE,134,0.0,0.0,62,0.00,CLR,,0.00,WeatherDisplay:10.37,2013-02-25 04:20:00,
2013-02-24 20:25:00,39.5,27.5,30.16,SE,141,0.0,0.0,62,0.00,CLR,,0.00,WeatherDisplay:10.37,2013-02-25 04:25:00,
2013-02-24 20:30:00,39.5,27.5,30.16,SSE,148,0.0,0.0,62,0.00,CLR,,0.00,WeatherDisplay:10.37,2013-02-25 04:30:00,
2013-02-24 20:35:00,39.2,27.7,30.16,SSE,152,0.0,0.0,63,0.00,CLR,,0.00,WeatherDisplay:10.37,2013-02-25 04:35:00,
2013-02-24 20:40:00,39.2,27.7,30.16,SE,145,0.0,0.0,63,0.00,CLR,,0.00,WeatherDisplay:10.37,2013-02-25 04:40:00,
2013-02-24 20:45:00,39.1,27.6,30.17,SE,145,0.0,0.0,63,0.00,CLR,,0.00,WeatherDisplay:10.37,2013-02-25 04:45:00,
2013-02-24 20:50:00,38.9,27.4,30.17,SSE,150,0.0,0.0,63,0.00,CLR,,0.00,WeatherDisplay:10.37,2013-02-25 04:50:00,
2013-02-24 20:55:00,38.9,27.4,30.16,SSE,151,0.0,0.0,63,0.00,CLR,,0.00,WeatherDisplay:10.37,2013-02-25 04:55:00,
2013-02-24 21:00:00,39.2,27.3,30.16,SSE,148,0.0,0.0,62,0.00,CLR,,0.00,WeatherDisplay:10.37,2013-02-25 05:00:00,
2013-02-24 21:01:00,39.3,27.4,30.16,SSE,165,0.0,0.0,62,0.00,CLR,,0.00,WeatherDisplay:10.37,2013-02-25 05:01:00,
2013-02-24 21:03:00,39.6,27.2,30.15,SE,137,0.0,0.0,61,0.00,CLR,,0.00,WeatherDisplay:10.37,2013-02-25 05:03:00,
2013-02-24 21:08:00,39.9,26.7,30.15,SSE,154,0.0,0.0,59,0.00,CLR,,0.00,WeatherDisplay:10.37,2013-02-25 05:08:00,
2013-02-24 21:13:00,40.1,26.5,30.15,SE,145,0.0,0.0,58,0.00,CLR,,0.00,WeatherDisplay:10.37,2013-02-25 05:13:00,
2013-02-24 21:16:00,40.1,26.5,30.15,SSE,157,0.0,0.0,58,0.00,CLR,,0.00,WeatherDisplay:10.37,2013-02-25 05:16:00,
2013-02-24 21:21:00,39.9,26.3,30.15,SE,131,0.0,0.0,58,0.00,CLR,,0.00,WeatherDisplay:10.37,2013-02-25 05:21:00,
2013-02-24 21:26:00,39.8,25.8,30.15,SE,128,0.0,0.0,57,0.00,CLR,,0.00,WeatherDisplay:10.37,2013-02-25 05:26:00,
2013-02-24 21:31:00,39.8,25.4,30.15,SE,136,0.0,0.0,56,0.00,CLR,,0.00,WeatherDisplay:10.37,2013-02-25 05:31:00,
2013-02-24 21:36:00,39.9,24.6,30.14,SE,140,0.0,0.0,54,0.00,CLR,,0.00,WeatherDisplay:10.37,2013-02-25 05:36:00,
2013-02-24 21:41:00,40.1,24.8,30.15,SSE,148,0.0,0.0,54,0.00,CLR,,0.00,WeatherDisplay:10.37,2013-02-25 05:41:00,
2013-02-24 21:46:00,39.9,24.6,30.14,SE,145,0.0,0.0,54,0.00,CLR,,0.00,WeatherDisplay:10.37,2013-02-25 05:46:00,
2013-02-24 21:51:00,40.1,24.3,30.14,SSE,152,0.0,0.0,53,0.00,CLR,,0.00,WeatherDisplay:10.37,2013-02-25 05:51:00,
2013-02-24 21:56:00,40.2,24.4,30.14,SE,144,0.0,0.0,53,0.00,CLR,,0.00,WeatherDisplay:10.37,2013-02-25 05:56:00,
2013-02-24 22:01:00,40.2,24.4,30.14,SSE,152,0.0,0.0,53,0.00,CLR,,0.00,WeatherDisplay:10.37,2013-02-25 06:01:00,
2013-02-24 22:06:00,40.1,24.3,30.13,SE,136,0.0,0.0,53,0.00,CLR,,0.00,WeatherDisplay:10.37,2013-02-25 06:06:00,
2013-02-24 22:11:00,40.1,24.3,30.12,SSE,152,0.0,0.0,53,0.00,CLR,,0.00,WeatherDisplay:10.37,2013-02-25 06:11:00,
2013-02-24 22:16:00,40.5,24.7,30.12,SSE,162,0.0,0.0,53,0.00,CLR,,0.00,WeatherDisplay:10.37,2013-02-25 06:16:00,
2013-02-24 22:21:00,40.5,24.7,30.11,SSE,160,0.0,0.0,53,0.00,CLR,,0.00,WeatherDisplay:10.37,2013-02-25 06:21:00,
2013-02-24 22:26:00,40.2,24.4,30.12,South,188,0.0,0.0,53,0.00,CLR,,0.00,WeatherDisplay:10.37,2013-02-25 06:26:00,
2013-02-24 22:31:00,40.1,24.3,30.12,SSE,151,1.1,1.1,53,0.00,CLR,,0.00,WeatherDisplay:10.37,2013-02-25 06:31:00,
2013-02-24 22:36:00,39.9,24.1,30.11,SSE,150,1.0,1.0,53,0.00,CLR,,0.00,WeatherDisplay:10.37,2013-02-25 06:36:00,
2013-02-24 22:41:00,40.1,23.9,30.11,South,171,1.1,1.1,52,0.00,CLR,,0.00,WeatherDisplay:10.37,2013-02-25 06:41:00,
2013-02-24 22:46:00,40.2,24.0,30.11,South,174,2.3,2.3,52,0.00,CLR,,0.00,WeatherDisplay:10.37,2013-02-25 06:46:00,
2013-02-24 22:51:00,40.2,23.5,30.11,South,169,0.0,0.0,51,0.00,CLR,,0.00,WeatherDisplay:10.37,2013-02-25 06:51:00,
2013-02-24 22:56:00,40.2,24.0,30.11,SW,215,0.0,0.0,52,0.00,CLR,,0.00,WeatherDisplay:10.37,2013-02-25 06:56:00,
2013-02-24 23:01:00,40.1,23.9,30.11,SW,216,0.0,0.0,52,0.00,CLR,,0.00,WeatherDisplay:10.37,2013-02-25 07:01:00,
2013-02-24 23:06:00,39.9,23.7,30.09,SW,216,0.0,0.0,52,0.00,CLR,,0.00,WeatherDisplay:10.37,2013-02-25 07:06:00,
2013-02-24 23:11:00,39.8,23.6,30.09,SW,216,0.0,0.0,52,0.00,CLR,,0.00,WeatherDisplay:10.37,2013-02-25 07:11:00,
2013-02-24 23:16:00,39.6,23.9,30.09,SW,216,0.0,0.0,53,0.00,CLR,,0.00,WeatherDisplay:10.37,2013-02-25 07:16:00,
2013-02-24 23:21:00,39.6,23.9,30.09,SW,216,0.0,0.0,53,0.00,CLR,,0.00,WeatherDisplay:10.37,2013-02-25 07:21:00,
2013-02-24 23:26:00,39.3,23.6,30.09,SW,216,0.0,0.0,53,0.00,CLR,,0.00,WeatherDisplay:10.37,2013-02-25 07:26:00,
2013-02-24 23:31:00,39.1,23.8,30.10,SW,216,0.0,0.0,54,0.00,CLR,,0.00,WeatherDisplay:10.37,2013-02-25 07:31:00,
2013-02-24 23:36:00,38.8,23.6,30.10,South,174,0.0,0.0,54,0.00,CLR,,0.00,WeatherDisplay:10.37,2013-02-25 07:36:00,
2013-02-24 23:41:00,38.8,24.0,30.09,SW,216,0.0,0.0,55,0.00,CLR,,0.00,WeatherDisplay:10.37,2013-02-25 07:41:00,
2013-02-24 23:46:00,38.6,23.8,30.09,SSE,160,0.0,0.0,55,0.00,CLR,,0.00,WeatherDisplay:10.37,2013-02-25 07:46:00,
2013-02-24 23:51:00,38.8,23.6,30.09,South,175,0.0,0.0,54,0.00,CLR,,0.00,WeatherDisplay:10.37,2013-02-25 07:51:00,
2013-02-24 23:56:00,38.9,23.7,30.08,SSE,161,0.0,0.0,54,0.00,CLR,,0.00,WeatherDisplay:10.37,2013-02-25 07:56:00,